TRANSIT 16 DEB

Satellite information

Favourite Embed

Satellite Type and Status

DEBRISDECAYED

Key statistics

Satellite TRANSIT 16 DEB at a glance.

Uptime

20947

Days in orbit

Revolutions

≈ 14.3

Per day

Orbit

LEO

Low Earth Orbit

Inclination

89.6

Latest

Satellite identification and parameters

Extended collection of information and parameters for TRANSIT 16 DEB.

Object identification

Identified? True

Debris? True

Object name: TRANSIT 16 DEB

International designator: 1967-048H

Object number (NORAD): 38530

Object ID (CCSDS): 38530

Country: UNITED STATES OF AMERICA (US)

Current information (Y/N): Y

RCS size: SMALL

Orbital parameters

Decay date: Sept. 22, 2024

Period: 101.03 minutes

Inclination: 89.636 deg

SMA: 7185.56 km

Apoapsis: 839.374 km

Periapsis: 775.476 km

RAAN: 13.0892 deg

Eccentricy: 0.0044463

Argument of periapsis: 73.0733 deg

Mean anomaly: 79.4881 deg

Mean motion: 14.25318276 rev/day

Mean motion (dot): 0.00069426 rev/day2

B* drag term: 0.028916 1/REarth

Two-line elements (TLE)

Creation date: Feb. 11, 2024, 5:15 p.m.

Reference frame: TEME

Reference center: EARTH

Epoch: Feb. 11, 2024, 8:51 a.m. UTC

TLE line 0: 0 TRANSIT 16 DEB

TLE line 1: 1 38530U 67048H 24042.36910257 .00069426 00000-0 28916-1 0 9993

TLE line 2: 2 38530 89.6360 13.0892 0044463 73.0733 79.4881 14.25318276647586

Live tracking on map

Satellite TRANSIT 16 DEB has decayed and is no longer in orbit. No tracking available.

In-orbit conjunctions

Satellite TRANSIT 16 DEB has decayed and is no longer in orbit. No conjunctions available.

Associated space launch

The Transit-O series of satellites that closely followed the design of Transit 5C-1 were also called “Oscars” (Oscar is the phonetic alphabet for “O”, i. e., operational). They were also called NNS (Navy Navigation Satellite) or shortened NavSat.

TRANSIT 16 DEB was lifted into orbit during the mission ‘Scout A | Transit-O 13’, on board a Scout A space rocket.

The launch took place on May 18, 1967, 9:05 a.m. from Space Launch Complex 5.

For more information about the launch, click the button.

Launch to space Scout A | Transit-O 13
Scout A | Transit-O 13

Agency: N/A

Status: Launch Successful

Launch date: May 18, 1967, 9:05 a.m. UTC

Rocket: Scout A

Launch pad: Space Launch Complex 5

Location: Vandenberg SFB, CA, USA

...

Latest news about this satellite

There are no fresh news available about this satellite. Check back as we update our databases every day.


Newsletter sign-up

Weekly statistics, charts and insights to help you stay on top of the space industry.